Keahole Point, HI

11:39 AM HST on June 22, 2017 (GMT -1000)
Kona International At Keahole

Weather History for PHKO - March, 2015

Change the Weather History Date:

Monday, March 23, 2015

  Actual Average Record
Temperature  
Mean Temperature 77 °F -  
Max Temperature 82 °F 79 °F 87 °F (1982)
Min Temperature 72 °F 68 °F 64 °F (2016)
Cooling Degree Days 12    
Growing Degree Days 27 (Base 50)    
Moisture  
Dew Point 65 °F    
Average Humidity 65    
Maximum Humidity 73    
Minimum Humidity 60    
Precipitation  
Precipitation 0.00 in - - ()
Sea Level Pressure  
Sea Level Pressure 30.05 in    
Wind  
Wind Speed 5 mph (SSW)    
Max Wind Speed 12 mph    
Max Gust Speed -    
Visibility 10 miles    
Events      
Averages and records for this station are not official NWS values.
T = Trace of Precipitation, MM = Missing Value Source: NWS Daily Summary

Daily Weather History Graph

Daily Weather History Graph

Search for Another Location

Airport or City:

Trip Planner

Search our weather history database for the weather conditions in past years. The results will help you decide how hot, cold, wet, or windy it might be!

Date:

Astronomy

Mar. 23, 2015 Rise Set
Actual Time 6:25 AM HST 6:36 PM HST
Civil Twilight 6:03 AM HST 6:58 PM HST
Nautical Twilight 5:38 AM HST 7:23 PM HST
Astronomical Twilight 5:12 AM HST 7:49 PM HST
Moon 9:11 AM HST (3/23) 10:23 PM HST (3/23)
Length of Visible Light 12h 54m
Length of Day
12h 10m
Waxing Crescent, 17% of the Moon is Illuminated
Mar 23
Waxing Crescent
Mar 26
First Quarter
Apr 4
Full
Apr 11
Last Quarter
Apr 18
New

Hourly Weather History & Observations

Time (HST) Temp. Heat Index Dew Point Humidity Pressure Visibility Wind Dir Wind Speed Gust Speed Precip Events Conditions
12:53 AM 73.9 °F - 64.0 °F 71% 30.07 in 10.0 mi Calm Calm - N/A   Clear
1:53 AM 73.0 °F - 64.0 °F 73% 30.05 in 10.0 mi Calm Calm - N/A   Clear
2:53 AM 73.0 °F - 64.0 °F 73% 30.04 in 10.0 mi Calm Calm - N/A   Clear
3:53 AM 73.0 °F - 64.0 °F 73% 30.02 in 10.0 mi East 4.6 mph - N/A   Clear
4:53 AM 73.0 °F - 64.0 °F 73% 30.02 in 10.0 mi East 5.8 mph - N/A   Clear
5:53 AM 72.0 °F - 63.0 °F 73% 30.04 in 10.0 mi East 5.8 mph - N/A   Scattered Clouds
6:53 AM 72.0 °F - 63.0 °F 73% 30.05 in 10.0 mi ENE 5.8 mph - N/A   Clear
7:53 AM 75.9 °F - 63.0 °F 64% 30.06 in 10.0 mi NE 4.6 mph - N/A   Scattered Clouds
8:53 AM 79.0 °F - 64.9 °F 62% 30.07 in 10.0 mi West 5.8 mph - N/A   Clear
9:53 AM 79.0 °F - 66.0 °F 64% 30.07 in 10.0 mi WSW 6.9 mph - N/A   Clear
10:53 AM 80.1 °F 82.3 °F 66.9 °F 64% 30.07 in 10.0 mi West 9.2 mph - N/A   Partly Cloudy
11:53 AM 81.0 °F 83.3 °F 66.9 °F 62% 30.06 in 10.0 mi West 9.2 mph - N/A   Clear
12:53 PM 82.0 °F 84.5 °F 66.9 °F 60% 30.04 in 10.0 mi WSW 10.4 mph - N/A   Clear
1:53 PM 82.0 °F 84.5 °F 66.9 °F 60% 30.01 in 10.0 mi WSW 10.4 mph - N/A   Clear
2:53 PM 82.0 °F 84.5 °F 66.9 °F 60% 30.01 in 10.0 mi WSW 11.5 mph - N/A   Clear
3:53 PM 81.0 °F 83.0 °F 66.0 °F 60% 30.01 in 10.0 mi West 10.4 mph - N/A   Partly Cloudy
4:53 PM 81.0 °F 83.0 °F 66.0 °F 60% 30.01 in 10.0 mi West 8.1 mph - N/A   Overcast
5:53 PM 80.1 °F 81.9 °F 64.9 °F 60% 30.03 in 10.0 mi WSW 5.8 mph - N/A   Scattered Clouds
6:53 PM 79.0 °F - 64.0 °F 60% 30.05 in 10.0 mi South 6.9 mph - N/A   Mostly Cloudy
7:53 PM 78.1 °F - 64.9 °F 64% 30.07 in 10.0 mi SSE 9.2 mph - N/A   Clear
8:53 PM 77.0 °F - 64.0 °F 64% 30.09 in 10.0 mi SSE 5.8 mph - N/A   Clear
9:53 PM 75.9 °F - 62.1 °F 62% 30.10 in 10.0 mi SE 6.9 mph - N/A   Clear
10:53 PM 75.9 °F - 63.0 °F 64% 30.12 in 10.0 mi SE 5.8 mph - N/A   Mostly Cloudy
11:53 PM 75.9 °F - 63.0 °F 64% 30.10 in 10.0 mi SE 8.1 mph - N/A   Mostly Cloudy